World > North America > United States > California > North Hollywood  

North Hollywood, CA Hourly Weather Forecast

Feedback E-mail the Weather

Quick Clicks

Weather World

24 Hour Forecast

Current Conditions - Hazy. Temperature is 57°F14°C, dew point 49°F9°C, humidity 74%. Wind direction is N at 0 mph0 km/h with visibility of 4 mi6 km. Barometric pressure is 29.97 in1014 mb.
Rest of Today - Mostly cloudy in the morning then sunny. Highs in the mid 50s to lower 60s. Southwest winds around 15 mph in the afternoon... Full Forecast
Tonight - Mostly clear in the evening then partly cloudy. Lows in the mid 30s to mid 40s... Full Forecast

North Hollywood Hourly Weather

24 Hour Weather Scroll
Fri, Apr 19
8:00 am
Fri, Apr 19
9:00 am
Fri, Apr 19
10:00 am
Fri, Apr 19
11:00 am
Fri, Apr 19
Noon
Fri, Apr 19
1:00 pm
Fri, Apr 19
2:00 pm
Fri, Apr 19
3:00 pm
Fri, Apr 19
4:00 pm
Fri, Apr 19
5:00 pm
Fri, Apr 19
6:00 pm
Fri, Apr 19
7:00 pm
Fri, Apr 19
8:00 pm
Fri, Apr 19
9:00 pm
Fri, Apr 19
10:00 pm
Fri, Apr 19
11:00 pm
Sat, Apr 20
Midnight
Sat, Apr 20
1:00 am
Sat, Apr 20
2:00 am
Sat, Apr 20
3:00 am
Sat, Apr 20
4:00 am
Sat, Apr 20
5:00 am
Sat, Apr 20
6:00 am
Sat, Apr 20
7:00 am
MistSunnySunnySunnySunnySunnySunnySunnySunnySunnySunnySunnyClear Clear Clear Clear Clear Clear Clear Clear Clear Clear Clear Partly Cloudy
Mist Sunny Sunny Sunny Sunny Sunny Sunny Sunny Sunny Sunny Sunny Sunny Clear Clear Clear Clear Clear Clear Clear Clear Clear Clear Clear Partly Cloudy
57°F14°C 62°F17°C 64°F18°C 66°F19°C 68°F20°C 70°F21°C 71°F22°C 71°F22°C 71°F21°C 69°F21°C 67°F20°C 65°F18°C 63°F17°C 62°F17°C 61°F16°C 60°F16°C 60°F15°C 59°F15°C 58°F14°C 57°F14°C 57°F14°C 57°F14°C 57°F14°C 58°F14°C
49°F
9°C
49°F
9°C
48°F
9°C
48°F
9°C
49°F
9°C
49°F
9°C
49°F
10°C
50°F
10°C
51°F
11°C
52°F
11°C
52°F
11°C
52°F
11°C
52°F
11°C
52°F
11°C
52°F
11°C
52°F
11°C
52°F
11°C
52°F
11°C
51°F
11°C
51°F
10°C
52°F
11°C
51°F
11°C
52°F
11°C
52°F
11°C
29.97 in
1015 mb
29.94 in
1014 mb
29.94 in
1014 mb
29.94 in
1014 mb
29.94 in
1014 mb
29.91 in
1013 mb
29.91 in
1013 mb
29.88 in
1012 mb
29.88 in
1012 mb
29.88 in
1012 mb
29.88 in
1012 mb
29.88 in
1012 mb
29.91 in
1013 mb
29.94 in
1014 mb
29.94 in
1014 mb
29.94 in
1014 mb
29.94 in
1014 mb
29.97 in
1015 mb
29.94 in
1014 mb
29.94 in
1014 mb
29.97 in
1015 mb
29.97 in
1015 mb
29.97 in
1015 mb
30 in
1016 mb
74%62%56%52%49%46%45%46%48%52%57%63%68%70%72%74%75%76%79%80%82%82%84%83%
NSSSSSWSSWSSWSSWSSWSSWSSWSSWSSSESSESSESESSESSESSESESSESSESSE
2 mph
4 km/h
4 mph
7 km/h
5 mph
9 km/h
6 mph
9 km/h
6 mph
10 km/h
7 mph
11 km/h
7 mph
12 km/h
8 mph
13 km/h
9 mph
14 km/h
8 mph
13 km/h
7 mph
11 km/h
6 mph
9 km/h
4 mph
7 km/h
4 mph
7 km/h
4 mph
7 km/h
4 mph
7 km/h
4 mph
6 km/h
4 mph
6 km/h
4 mph
6 km/h
4 mph
6 km/h
3 mph
5 km/h
3 mph
5 km/h
3 mph
5 km/h
3 mph
4 km/h
0%0%0%0%0%0%0%0%0%0%0%0%0%0%0%0%0%0%0%0%0%0%0%0%
4 mi
6 km
6 mi
10 km
6 mi
10 km
6 mi
10 km
6 mi
10 km
6 mi
10 km
6 mi
10 km
6 mi
10 km
6 mi
10 km
6 mi
10 km
6 mi
10 km
6 mi
10 km
6 mi
10 km
6 mi
10 km
6 mi
10 km
6 mi
10 km
6 mi
10 km
6 mi
10 km
6 mi
10 km
6 mi
10 km
6 mi
10 km
6 mi
10 km
6 mi
10 km
6 mi
10 km

Day/Time
Weather
Condition
Temperature
Dew Point
Pressure
Humidity
Wind Direction
Wind Speed
Prob Precip %
Visibility
POP = Probability of Precipitation. ** Indicates missing data/values from KBUR model statistics.

Trending Headlines

Trending Entertainment Headlines

North Hollywood Radar Loop

Use the map search tool if you want to place a location marker on the radar map...

48 Hour API Forecast

Prob Precip % = Probability of Precipitation.

North Hollywood 36 Hour Forecast

POP = Probability of Precipitation. ** Indicates missing data/values from model statistics.

E-mail the North Hollywood Weather Forecast

Voice your opinion or tell us about page issues...

North Hollywood CA Weather - 11:43 am

What are people saying?

Contact Us